SCP
0 0 0 0 0 0 0 0 0 0 0 0 0 0 0 0 0 0 0 0 0 0 0 0 0 0 1 1 1 1 1 1 1 0 0 0 0 0 0 0 0 0 0 0
0 0 0 0 0 0 0 0 0 0 0 0 0 0 0 0 0 0 0 0 0 0 0 0 0 0 1 1 1 1 1 1 1 0 0 0 0 0 0 0 0 0 0 0
0 0 0 0 0 0 0 0 0 0 0 0 0 0 0 0 0 0 0 0 0 0 0 0 0 1 1 1 1 1 1 1 1 1 0 0 0 0 0 0 0 0 0 0
0 0 0 0 0 0 0 0 0 0 0 0 0 0 0 0 0 0 0 0 0 0 0 0 1 1 1 1 1 1 1 1 1 1 1 0 0 0 0 0 0 0 0 0
0 0 0 0 0 0 0 0 0 0 0 0 0 0 0 0 0 0 0 0 0 0 0 0 0 1 1 1 1 1 1 1 1 1 1 1 0 0 0 0 0 0 0 0
0 0 0 0 0 0 0 0 0 0 0 0 0 0 0 0 0 0 0 0 0 0 0 0 1 1 1 1 1 1 1 1 1 1 1 1 0 0 0 0 0 0 0 0
0 0 0 0 0 0 0 0 0 0 0 0 0 0 0 0 0 0 0 0 0 0 0 1 1 1 1 1 1 1 1 1 1 1 1 1 1 0 0 0 0 0 0 0
0 0 0 0 0 0 0 0 0 0 0 0 0 0 0 0 0 0 0 0 0 0 0 1 1 1 1 1 1 1 1 1 1 1 1 1 1 0 0 0 0 0 0 0
0 0 0 0 0 0 0 0 0 0 0 0 0 0 0 0 0 0 0 0 0 1 1 1 1 1 1 1 1 1 1 1 1 1 1 1 1 0 0 0 0 0 0 0
0 0 0 0 0 0 0 0 0 0 0 0 0 0 0 0 0 0 0 0 1 1 1 1 1 1 1 1 1 1 1 1 1 1 1 1 1 1 0 0 0 0 0 0
0 0 0 0 0 0 0 0 0 0 0 0 0 0 0 0 0 0 0 1 1 1 1 1 1 1 1 1 1 1 1 1 1 1 1 1 1 1 1 1 1 1 1 1
0 0 0 0 0 0 0 0 0 0 0 0 0 0 0 0 0 0 1 1 1 1 1 1 1 1 1 1 1 1 1 1 1 1 1 1 1 1 1 1 1 1 1 1
0 0 0 0 0 0 0 0 0 0 0 0 0 0 0 1 1 1 1 1 1 1 1 1 2 2 1 1 1 1 1 1 1 1 1 1 1 1 1 1 1 1 1 1
0 0 0 0 0 0 0 0 0 0 0 0 0 0 0 1 1 1 1 1 1 1 1 2 2 2 2 2 2 1 1 1 1 1 1 1 1 1 1 1 1 1 1 1
0 0 0 0 0 0 0 0 0 0 0 0 0 0 0 1 1 1 1 1 1 1 2 2 2 2 2 2 2 2 2 2 2 1 1 1 1 1 1 1 2 2 2 1
0 0 0 0 0 0 0 0 0 0 0 0 0 0 1 1 1 1 1 1 1 2 2 2 2 2 2 2 2 2 2 2 2 2 2 2 2 2 2 2 2 2 2 2
0 0 0 0 0 0 0 0 0 0 0 0 0 0 1 1 1 1 1 1 2 2 2 2 2 2 2 2 2 2 2 2 2 2 2 2 2 2 2 2 2 2 2 2
0 0 0 0 0 0 0 0 0 0 0 0 0 1 1 1 1 1 1 1 2 2 2 2 2 2 2 2 2 2 2 2 2 2 2 2 2 2 2 2 2 2 2 2
0 0 0 0 0 0 0 0 0 0 0 0 1 1 1 1 1 1 1 2 2 2 2 2 2 2 2 2 2 2 2 2 2 2 2 2 2 2 2 2 2 3 3 2
0 0 0 0 0 0 0 0 0 0 0 0 1 1 1 1 1 1 1 2 2 2 2 2 2 2 2 2 2 2 2 2 2 2 2 3 2 2 2 2 2 2 2 2
0 0 0 0 0 0 0 0 0 0 0 1 1 1 1 1 1 1 2 2 2 2 1 1 1 2 2 2 2 2 2 3 3 3 3 3 2 2 2 2 2 2 2 2
0 0 0 0 0 0 0 0 0 1 1 1 1 1 1 1 1 2 2 2 2 1 1 1 1 1 2 2 2 2 2 2 3 3 3 2 2 2 2 2 2 2 2 2
0 0 0 0 0 0 0 0 1 1 1 1 1 1 1 1 1 1 2 1 1 1 1 1 1 1 1 2 2 2 2 2 2 2 2 2 2 2 2 2 2 2 2 2
0 0 0 0 0 0 1 1 1 1 1 1 1 1 1 1 1 1 1 1 1 1 1 1 1 1 1 2 2 2 2 2 2 2 2 2 2 2 2 2 2 2 2 2
0 0 0 0 0 1 1 1 1 1 1 1 1 1 1 1 1 1 1 1 1 1 1 1 1 1 1 1 2 2 2 2 2 2 2 2 2 2 2 2 2 2 1 1
0 0 0 0 0 1 1 1 1 1 1 1 1 1 1 1 1 1 1 1 1 1 1 1 1 1 1 1 1 1 2 2 2 2 2 2 2 2 2 1 1 1 1 1
Wind_Speed
7 11 11 9 9 7 6 7 6 3 4 8 9 8 6 10 11 11 12 12 12 11 10 10 10 10 10 10 10 9 9 8 7 5 5 5 4 4 4 4 4 5 4 4
10 13 9 6 6 7 8 9 7 4 4 6 7 8 6 9 12 11 12 12 12 11 11 11 11 11 12 11 11 11 10 10 9 6 4 3 3 3 3 3 3 5 5 5
15 6 4 8 10 11 10 9 7 5 5 8 7 8 8 8 10 11 11 11 12 12 12 12 12 12 12 12 12 10 10 10 9 8 6 4 4 4 4 4 4 4 5 5
11 6 7 10 11 12 10 7 7 7 9 6 7 6 6 7 9 11 12 12 12 12 12 12 13 13 13 12 12 11 11 10 9 9 8 8 6 5 4 4 3 4 4 4
9 8 10 12 10 10 6 3 6 8 9 8 7 8 3 6 7 9 11 11 11 12 12 13 13 13 12 12 11 11 11 10 10 9 9 8 7 5 4 4 4 4 4 4
7 5 7 7 6 6 5 6 6 8 10 11 8 9 6 4 4 5 7 9 10 10 11 11 12 11 11 11 11 10 11 10 10 10 10 9 8 6 5 5 4 4 4 4
11 11 8 6 8 9 11 11 9 10 10 10 6 9 5 2 2 4 4 7 9 10 11 12 12 12 12 12 12 11 11 10 10 10 10 9 9 8 7 6 5 4 3 3
12 13 12 10 11 10 13 15 13 11 10 9 8 9 4 1 1 3 3 5 8 10 10 11 12 12 12 12 12 11 11 10 10 10 9 8 8 7 5 6 5 4 4 3
8 9 7 6 7 10 12 13 13 13 12 11 8 6 5 3 3 3 4 6 7 8 9 10 11 11 11 11 11 11 11 10 10 10 9 8 8 7 6 5 6 5 4 4
6 7 7 6 7 4 8 9 8 12 12 12 11 10 6 4 3 4 5 6 6 6 8 9 9 10 10 11 10 10 10 10 10 9 9 7 8 8 7 6 6 5 5 4
8 9 8 9 10 10 8 9 10 10 11 12 11 6 1 1 1 2 3 4 5 6 7 7 8 8 9 10 10 10 10 9 9 9 8 7 7 8 7 7 7 6 6 6
6 8 8 8 3 3 8 9 11 11 10 10 11 3 5 2 1 0 1 2 4 4 5 7 7 7 8 9 9 10 9 9 9 8 8 8 7 7 7 7 7 6 6 6
4 7 9 10 10 7 7 6 8 9 8 10 13 5 6 3 2 2 1 2 3 4 5 6 7 6 6 7 7 8 8 8 8 8 8 8 8 8 7 7 6 6 6 6
5 8 11 12 6 7 9 8 8 11 11 11 12 6 3 2 0 1 2 2 3 4 4 5 5 5 5 5 6 6 6 6 7 7 8 8 8 7 7 7 7 6 6 6
5 9 9 9 6 6 8 9 9 11 11 11 8 6 1 1 1 1 2 2 3 4 4 4 4 4 4 4 5 5 5 5 6 6 7 7 7 6 6 6 6 6 6 7
3 6 7 9 9 8 9 9 9 9 9 9 8 4 1 1 1 1 2 2 2 2 3 3 3 3 3 4 4 5 5 5 5 5 6 6 6 6 6 6 6 6 6 6
5 6 8 10 9 10 12 10 10 9 7 8 8 1 2 2 1 1 1 2 2 2 2 2 2 2 2 3 3 4 4 4 4 4 4 5 5 6 6 6 6 6 6 5
5 6 7 7 8 14 3 2 4 5 3 3 1 1 1 0 0 1 2 2 3 3 2 2 1 1 1 2 3 3 4 5 4 4 4 5 5 5 6 6 6 5 5 4
5 6 7 8 11 9 5 3 4 6 4 1 1 1 1 1 2 4 4 4 4 4 3 2 2 2 2 1 1 3 3 4 4 4 4 4 4 4 4 5 5 4 4 4
5 6 8 8 11 10 3 4 1 4 6 3 1 1 1 2 4 2 4 5 4 4 4 3 2 2 2 2 1 1 2 3 3 3 3 3 3 3 4 4 3 3 3 4
9 8 11 11 11 5 4 1 4 8 1 3 1 1 3 3 4 3 3 4 4 3 3 3 2 2 2 2 1 1 1 1 1 1 2 2 3 3 3 3 3 3 3 3
7 8 9 9 12 5 5 1 2 4 5 3 2 2 3 3 2 2 2 3 3 4 3 3 2 2 2 1 0 0 1 0 1 1 1 2 2 2 2 3 3 4 4 4
4 4 3 4 2 4 2 2 3 3 3 4 4 3 2 2 2 2 2 3 3 4 4 3 3 2 2 2 1 1 1 1 2 2 2 2 2 2 2 3 4 4 4 4
3 2 3 3 1 1 2 2 3 4 4 4 4 3 3 3 3 3 3 3 3 3 4 4 3 2 2 2 2 2 2 2 2 2 2 2 3 2 2 2 3 3 3 4
2 3 4 6 3 3 3 3 4 3 3 3 3 3 3 3 4 4 4 4 3 3 4 4 3 3 3 3 3 3 2 2 2 2 2 2 2 2 2 1 0 1 1 2
3 4 6 4 3 5 4 4 4 3 3 3 3 4 4 4 4 4 4 3 3 4 4 4 3 3 3 3 3 3 2 2 2 2 2 2 2 2 2 2 2 5 3 4
Wind_Direction
210 228 225 223 234 264 260 251 239 209 187 222 236 241 203 190 203 202 199 201 203 207 199 192 193 192 188 188 188 191 195 185 188 190 195 193 194 198 200 206 200 204 207 198
215 227 231 238 229 235 236 239 230 194 177 230 244 244 221 196 209 210 206 204 208 204 194 190 192 191 191 190 190 191 195 192 196 191 198 202 206 211 206 214 199 213 211 212
230 217 192 213 212 223 230 240 237 216 185 215 247 231 204 195 208 212 214 212 210 206 199 191 193 194 193 192 193 194 196 194 199 193 194 192 196 217 202 204 201 210 214 217
234 201 200 217 218 228 226 231 242 223 223 215 237 258 188 192 202 208 211 210 209 204 201 194 192 194 195 193 190 193 193 196 194 197 203 204 209 213 209 207 196 199 211 221
206 202 211 221 220 227 240 224 221 228 236 249 226 262 212 184 210 208 207 206 205 200 198 195 194 193 193 189 187 186 188 192 193 200 202 210 218 218 208 201 194 212 205 215
226 202 230 232 217 210 172 182 194 226 240 239 238 256 252 207 230 220 204 199 199 195 193 191 189 186 187 185 183 182 184 190 192 197 203 210 216 217 215 212 205 211 203 206
214 209 204 211 196 186 204 214 216 220 225 236 211 246 260 279 262 244 217 196 192 188 188 185 184 183 184 184 183 181 183 188 192 196 203 207 212 211 212 219 214 224 219 209
213 209 199 207 225 213 217 231 237 244 240 225 197 238 239 226 281 255 219 187 182 182 183 183 182 182 182 183 183 182 182 187 191 195 201 205 209 214 211 209 228 220 233 232
227 214 175 200 226 243 221 233 250 253 257 264 236 224 214 204 218 199 179 169 174 178 176 177 178 180 180 182 183 183 182 188 192 194 196 202 206 216 215 204 216 223 221 221
250 231 191 181 194 209 261 238 231 244 246 248 241 233 231 211 213 180 174 171 165 167 172 171 173 176 177 178 179 182 184 189 191 193 197 195 199 204 208 215 213 221 220 221
243 236 204 194 216 207 194 214 232 241 249 251 249 228 111 180 232 196 176 170 162 166 165 163 166 170 174 174 175 179 184 190 191 192 193 199 198 199 203 208 212 213 215 211
227 244 230 210 179 276 237 229 221 232 233 246 265 233 94 102 83 72 124 141 156 159 155 153 153 161 170 175 176 179 185 192 192 187 188 193 196 198 202 203 207 207 210 212
211 234 227 206 190 194 215 217 232 243 241 243 249 221 119 112 95 75 66 112 137 149 151 149 147 156 167 170 176 180 188 192 188 184 188 188 192 197 203 202 200 201 203 208
244 240 245 249 237 198 207 209 220 235 238 239 246 242 150 142 139 48 66 104 128 138 145 146 143 147 156 165 172 181 187 187 186 187 190 189 193 196 199 199 197 198 199 202
244 235 237 256 254 235 230 224 222 238 255 258 250 242 256 246 299 31 58 95 113 122 127 133 142 142 157 164 169 177 181 180 185 189 191 191 195 196 198 197 197 196 200 203
245 251 234 236 231 228 235 235 232 238 248 252 249 235 14 55 88 76 76 102 107 108 108 117 135 148 166 171 173 172 176 175 181 190 191 189 193 194 196 196 197 196 200 207
226 228 237 233 221 228 231 227 229 229 237 252 252 238 118 125 83 69 59 61 79 71 79 94 113 146 172 179 180 176 172 172 177 187 189 186 194 197 199 199 194 196 199 200
238 238 241 239 222 234 210 137 229 228 229 258 313 129 188 105 39 88 71 52 45 36 31 36 40 98 141 162 169 179 171 167 175 182 189 190 195 199 197 199 198 197 196 196
234 231 241 241 230 229 183 181 216 220 204 186 232 144 111 55 187 143 71 39 31 22 11 9 9 29 59 81 145 177 179 171 173 178 188 192 190 195 194 196 202 198 195 197
191 219 237 239 247 239 161 110 283 244 209 123 175 183 181 224 240 123 34 9 8 10 4 3 22 41 46 43 52 181 170 167 183 190 190 182 176 184 191 190 200 202 200 199
198 209 228 236 244 242 57 68 215 230 96 51 339 267 252 276 329 5 347 354 1 3 360 6 19 41 40 32 27 197 169 169 180 188 177 170 178 193 197 184 184 198 217 210
234 220 222 237 244 226 62 162 267 3 9 342 314 298 299 324 354 351 353 355 350 350 357 2 6 13 7 358 315 210 197 175 180 177 170 169 181 204 187 183 193 197 208 211
251 302 289 277 312 50 30 352 354 332 323 320 309 307 296 285 297 313 327 332 338 339 339 339 339 340 337 322 296 279 249 220 203 187 189 192 192 195 207 195 205 207 204 215
177 274 263 259 228 282 307 316 315 316 305 303 298 291 285 281 286 297 309 315 322 325 321 322 318 323 331 324 305 288 275 235 217 200 197 195 193 196 194 209 213 218 218 221
285 246 248 251 259 267 264 298 310 314 302 297 296 294 289 284 281 288 291 296 307 307 302 301 306 308 308 310 309 310 303 261 227 218 218 226 221 195 197 184 359 266 31 328
256 267 271 280 302 290 295 303 301 293 281 276 280 288 290 287 284 281 284 288 290 289 288 286 284 282 288 297 305 313 305 276 246 237 233 238 232 196 195 166 123 58 62 51